QPF
0.09 0.08 0.05 0.02 0.01 0.00 0.00 0.00 0.00 0.00 0.00 0.00 0.00 0.00 0.00 0.00 0.00 0.00 0.00 0.00 0.00 0.00 0.00 0.00 0.00 0.00 0.00 0.00 0.00 0.00 0.00 0.00 0.00 0.00 0.00 0.00 0.00 0.00 0.00 0.00 0.00 0.00 0.00 0.00
0.08 0.06 0.02 0.01 0.01 0.01 0.01 0.01 0.00 0.00 0.00 0.00 0.00 0.00 0.00 0.00 0.00 0.00 0.00 0.00 0.00 0.00 0.00 0.00 0.00 0.00 0.00 0.00 0.00 0.00 0.00 0.00 0.00 0.00 0.00 0.00 0.00 0.00 0.00 0.00 0.00 0.00 0.00 0.00
0.03 0.01 0.01 0.02 0.03 0.03 0.02 0.01 0.00 0.00 0.00 0.00 0.00 0.00 0.00 0.00 0.00 0.00 0.00 0.00 0.00 0.00 0.00 0.00 0.00 0.00 0.00 0.00 0.00 0.00 0.00 0.00 0.00 0.00 0.00 0.00 0.00 0.00 0.00 0.00 0.00 0.00 0.00 0.00
0.02 0.01 0.02 0.03 0.02 0.02 0.02 0.01 0.01 0.01 0.02 0.01 0.01 0.01 0.00 0.00 0.00 0.00 0.00 0.00 0.00 0.00 0.00 0.00 0.00 0.00 0.00 0.00 0.00 0.00 0.00 0.00 0.00 0.00 0.00 0.00 0.00 0.00 0.00 0.00 0.00 0.00 0.00 0.00
0.02 0.01 0.02 0.02 0.01 0.01 0.01 0.01 0.02 0.02 0.03 0.03 0.01 0.01 0.00 0.00 0.00 0.00 0.00 0.00 0.00 0.00 0.00 0.00 0.00 0.00 0.00 0.00 0.00 0.00 0.00 0.00 0.00 0.00 0.00 0.00 0.00 0.00 0.00 0.00 0.00 0.00 0.00 0.00
0.01 0.01 0.02 0.01 0.01 0.02 0.03 0.04 0.05 0.06 0.09 0.08 0.01 0.01 0.00 0.00 0.00 0.00 0.00 0.00 0.00 0.00 0.00 0.00 0.00 0.00 0.00 0.00 0.00 0.00 0.00 0.00 0.00 0.00 0.00 0.00 0.00 0.00 0.00 0.00 0.00 0.00 0.00 0.00
0.03 0.02 0.02 0.01 0.02 0.04 0.07 0.08 0.11 0.13 0.13 0.07 0.01 0.01 0.00 0.00 0.00 0.00 0.00 0.00 0.00 0.00 0.00 0.00 0.00 0.00 0.00 0.00 0.00 0.00 0.00 0.00 0.00 0.00 0.00 0.00 0.00 0.00 0.00 0.00 0.00 0.00 0.00 0.00
0.02 0.02 0.01 0.02 0.01 0.02 0.03 0.05 0.06 0.07 0.05 0.02 0.00 0.01 0.00 0.00 0.00 0.00 0.00 0.00 0.00 0.00 0.00 0.00 0.00 0.00 0.00 0.00 0.00 0.00 0.00 0.00 0.00 0.00 0.00 0.00 0.00 0.00 0.00 0.00 0.00 0.00 0.00 0.00
0.01 0.01 0.00 0.00 0.00 0.02 0.03 0.05 0.04 0.05 0.04 0.02 0.01 0.00 0.00 0.00 0.00 0.00 0.00 0.00 0.00 0.00 0.00 0.00 0.00 0.00 0.00 0.00 0.00 0.00 0.00 0.00 0.00 0.00 0.00 0.00 0.00 0.00 0.00 0.00 0.00 0.00 0.00 0.00
0.03 0.02 0.00 0.01 0.03 0.04 0.03 0.04 0.08 0.13 0.13 0.07 0.02 0.01 0.00 0.00 0.00 0.00 0.00 0.00 0.00 0.00 0.00 0.00 0.00 0.00 0.00 0.00 0.00 0.00 0.00 0.00 0.00 0.00 0.00 0.00 0.00 0.00 0.00 0.00 0.00 0.00 0.00 0.00
0.05 0.05 0.02 0.02 0.03 0.02 0.03 0.05 0.08 0.10 0.09 0.06 0.02 0.00 0.00 0.00 0.00 0.00 0.00 0.00 0.00 0.00 0.00 0.00 0.00 0.00 0.00 0.00 0.00 0.00 0.00 0.00 0.00 0.00 0.00 0.00 0.00 0.00 0.00 0.00 0.00 0.00 0.00 0.00
0.05 0.08 0.06 0.02 0.01 0.02 0.03 0.03 0.04 0.08 0.09 0.05 0.03 0.01 0.00 0.00 0.00 0.00 0.00 0.00 0.00 0.00 0.00 0.00 0.00 0.00 0.00 0.00 0.00 0.00 0.00 0.00 0.00 0.00 0.00 0.00 0.00 0.00 0.00 0.00 0.00 0.00 0.00 0.00
0.07 0.10 0.10 0.08 0.05 0.04 0.05 0.03 0.03 0.05 0.07 0.08 0.07 0.02 0.00 0.00 0.00 0.00 0.00 0.00 0.00 0.00 0.00 0.00 0.00 0.00 0.00 0.00 0.00 0.00 0.00 0.00 0.00 0.00 0.00 0.00 0.00 0.00 0.00 0.00 0.00 0.00 0.00 0.00
0.09 0.10 0.07 0.05 0.03 0.02 0.03 0.02 0.03 0.06 0.10 0.08 0.05 0.01 0.00 0.00 0.00 0.00 0.00 0.00 0.00 0.00 0.00 0.00 0.00 0.00 0.00 0.00 0.00 0.00 0.00 0.00 0.00 0.00 0.00 0.00 0.00 0.00 0.00 0.00 0.00 0.00 0.00 0.00
0.12 0.11 0.07 0.04 0.02 0.02 0.03 0.03 0.03 0.06 0.06 0.06 0.04 0.02 0.01 0.00 0.00 0.00 0.00 0.00 0.00 0.00 0.00 0.00 0.00 0.00 0.00 0.00 0.00 0.00 0.00 0.00 0.00 0.00 0.00 0.00 0.00 0.00 0.00 0.00 0.00 0.00 0.00 0.00
0.12 0.12 0.07 0.05 0.03 0.03 0.03 0.03 0.03 0.04 0.04 0.04 0.02 0.01 0.01 0.00 0.00 0.00 0.00 0.00 0.00 0.00 0.00 0.00 0.00 0.00 0.00 0.00 0.00 0.00 0.00 0.00 0.00 0.00 0.00 0.00 0.00 0.00 0.00 0.00 0.00 0.00 0.00 0.00
0.09 0.10 0.10 0.07 0.03 0.06 0.06 0.02 0.01 0.01 0.01 0.01 0.01 0.01 0.00 0.00 0.00 0.00 0.00 0.00 0.00 0.00 0.00 0.00 0.00 0.00 0.00 0.00 0.00 0.00 0.00 0.00 0.00 0.00 0.00 0.00 0.00 0.00 0.00 0.00 0.00 0.00 0.00 0.00
0.08 0.09 0.11 0.10 0.09 0.13 0.04 0.00 0.00 0.00 0.00 0.00 0.00 0.01 0.01 0.01 0.01 0.01 0.01 0.01 0.01 0.00 0.00 0.00 0.00 0.00 0.00 0.00 0.00 0.00 0.00 0.00 0.00 0.00 0.00 0.00 0.00 0.00 0.00 0.00 0.00 0.00 0.00 0.00
0.06 0.08 0.14 0.14 0.12 0.08 0.02 0.00 0.00 0.00 0.00 0.00 0.00 0.00 0.01 0.01 0.02 0.02 0.01 0.01 0.01 0.01 0.01 0.01 0.01 0.01 0.00 0.00 0.00 0.00 0.00 0.00 0.00 0.00 0.00 0.00 0.00 0.00 0.00 0.00 0.00 0.00 0.00 0.00
0.06 0.07 0.12 0.13 0.12 0.07 0.01 0.00 0.00 0.01 0.01 0.00 0.00 0.00 0.00 0.00 0.00 0.00 0.01 0.01 0.01 0.01 0.01 0.00 0.00 0.00 0.00 0.00 0.00 0.00 0.00 0.00 0.00 0.00 0.00 0.00 0.00 0.00 0.00 0.00 0.00 0.00 0.00 0.00
0.10 0.12 0.12 0.10 0.08 0.03 0.00 0.00 0.01 0.02 0.01 0.00 0.00 0.00 0.00 0.00 0.00 0.00 0.00 0.00 0.00 0.00 0.00 0.00 0.00 0.00 0.00 0.00 0.00 0.00 0.00 0.00 0.00 0.00 0.00 0.00 0.00 0.00 0.00 0.00 0.00 0.00 0.00 0.00
0.06 0.08 0.08 0.06 0.06 0.03 0.00 0.00 0.00 0.01 0.00 0.00 0.00 0.00 0.00 0.01 0.00 0.00 0.00 0.01 0.01 0.01 0.01 0.01 0.01 0.00 0.00 0.00 0.00 0.00 0.00 0.00 0.00 0.00 0.00 0.00 0.00 0.00 0.00 0.00 0.00 0.00 0.00 0.00
0.03 0.04 0.04 0.03 0.03 0.01 0.00 0.00 0.00 0.00 0.00 0.00 0.00 0.00 0.00 0.00 0.01 0.01 0.01 0.01 0.01 0.01 0.01 0.01 0.00 0.00 0.00 0.00 0.00 0.00 0.00 0.00 0.00 0.00 0.00 0.00 0.00 0.00 0.00 0.00 0.00 0.00 0.00 0.00
0.02 0.03 0.03 0.02 0.02 0.01 0.01 0.01 0.00 0.00 0.00 0.00 0.00 0.00 0.00 0.00 0.00 0.00 0.00 0.01 0.01 0.01 0.01 0.00 0.00 0.01 0.01 0.01 0.00 0.00 0.00 0.00 0.00 0.00 0.00 0.00 0.00 0.00 0.00 0.00 0.00 0.00 0.01 0.01
0.02 0.02 0.03 0.03 0.02 0.01 0.01 0.01 0.01 0.00 0.00 0.00 0.00 0.00 0.00 0.00 0.00 0.00 0.00 0.00 0.01 0.01 0.01 0.00 0.00 0.00 0.01 0.01 0.01 0.01 0.01 0.01 0.01 0.00 0.00 0.00 0.00 0.00 0.00 0.00 0.01 0.01 0.01 0.02
0.01 0.01 0.02 0.02 0.02 0.01 0.01 0.01 0.01 0.01 0.00 0.00 0.00 0.00 0.00 0.00 0.00 0.00 0.00 0.01 0.01 0.01 0.01 0.01 0.01 0.01 0.01 0.01 0.01 0.00 0.00 0.00 0.00 0.00 0.00 0.00 0.00 0.00 0.00 0.00 0.01 0.01 0.01 0.01
MSLP
1018.27 1018.57 1018.89 1019.22 1019.57 1019.92 1020.25 1020.52 1020.70 1020.75 1020.67 1020.45 1020.10 1019.67 1019.19 1018.71 1018.27 1017.88 1017.55 1017.28 1017.05 1016.84 1016.64 1016.45 1016.27 1016.14 1016.06 1016.06 1016.15 1016.34 1016.61 1016.95 1017.31 1017.69 1018.04 1018.37 1018.67 1018.93 1019.17 1019.40 1019.64 1019.88 1020.13 1020.39
1017.94 1018.17 1018.42 1018.71 1019.05 1019.43 1019.83 1020.21 1020.51 1020.69 1020.72 1020.57 1020.27 1019.83 1019.30 1018.74 1018.19 1017.70 1017.28 1016.93 1016.63 1016.38 1016.15 1015.92 1015.71 1015.52 1015.38 1015.32 1015.35 1015.49 1015.73 1016.06 1016.45 1016.87 1017.29 1017.69 1018.04 1018.34 1018.61 1018.84 1019.06 1019.27 1019.50 1019.74
1017.56 1017.72 1017.91 1018.15 1018.48 1018.88 1019.33 1019.79 1020.19 1020.48 1020.59 1020.51 1020.23 1019.77 1019.20 1018.56 1017.92 1017.33 1016.83 1016.41 1016.08 1015.80 1015.54 1015.31 1015.07 1014.85 1014.67 1014.55 1014.53 1014.62 1014.84 1015.16 1015.57 1016.03 1016.50 1016.95 1017.36 1017.70 1017.99 1018.22 1018.43 1018.62 1018.81 1019.01
1017.20 1017.30 1017.43 1017.64 1017.94 1018.34 1018.83 1019.33 1019.80 1020.14 1020.30 1020.25 1019.96 1019.48 1018.85 1018.13 1017.42 1016.76 1016.19 1015.74 1015.39 1015.11 1014.87 1014.64 1014.42 1014.19 1013.99 1013.84 1013.78 1013.83 1014.02 1014.33 1014.74 1015.22 1015.73 1016.23 1016.67 1017.05 1017.35 1017.59 1017.78 1017.95 1018.11 1018.28
1016.90 1016.97 1017.06 1017.23 1017.50 1017.89 1018.37 1018.89 1019.36 1019.72 1019.89 1019.82 1019.50 1018.97 1018.28 1017.50 1016.72 1016.02 1015.42 1014.96 1014.62 1014.38 1014.18 1014.01 1013.82 1013.62 1013.43 1013.28 1013.19 1013.22 1013.37 1013.66 1014.06 1014.54 1015.06 1015.58 1016.05 1016.45 1016.78 1017.02 1017.20 1017.35 1017.48 1017.61
1016.66 1016.71 1016.78 1016.92 1017.17 1017.53 1017.98 1018.47 1018.92 1019.25 1019.38 1019.26 1018.90 1018.31 1017.57 1016.74 1015.93 1015.20 1014.61 1014.18 1013.89 1013.71 1013.60 1013.50 1013.39 1013.24 1013.09 1012.94 1012.85 1012.85 1012.98 1013.23 1013.60 1014.07 1014.58 1015.10 1015.58 1016.00 1016.33 1016.59 1016.77 1016.91 1017.01 1017.11
1016.42 1016.48 1016.55 1016.67 1016.89 1017.22 1017.63 1018.08 1018.47 1018.74 1018.81 1018.63 1018.22 1017.58 1016.80 1015.95 1015.13 1014.42 1013.87 1013.50 1013.29 1013.21 1013.20 1013.21 1013.19 1013.12 1013.02 1012.91 1012.82 1012.81 1012.90 1013.11 1013.44 1013.87 1014.36 1014.86 1015.34 1015.76 1016.10 1016.37 1016.56 1016.69 1016.78 1016.85
1016.13 1016.20 1016.28 1016.40 1016.61 1016.91 1017.27 1017.66 1017.99 1018.19 1018.20 1017.97 1017.51 1016.85 1016.06 1015.23 1014.44 1013.79 1013.31 1013.03 1012.93 1012.96 1013.07 1013.19 1013.28 1013.30 1013.27 1013.19 1013.12 1013.10 1013.16 1013.32 1013.60 1013.98 1014.42 1014.89 1015.36 1015.77 1016.12 1016.40 1016.60 1016.73 1016.82 1016.86
1015.70 1015.79 1015.89 1016.02 1016.23 1016.51 1016.84 1017.18 1017.46 1017.60 1017.56 1017.30 1016.83 1016.19 1015.43 1014.65 1013.94 1013.38 1013.01 1012.84 1012.85 1013.01 1013.23 1013.47 1013.65 1013.77 1013.80 1013.77 1013.72 1013.69 1013.72 1013.84 1014.07 1014.38 1014.77 1015.20 1015.64 1016.04 1016.39 1016.67 1016.88 1017.03 1017.11 1017.14
1015.09 1015.21 1015.33 1015.48 1015.70 1015.98 1016.29 1016.60 1016.84 1016.96 1016.90 1016.65 1016.20 1015.61 1014.93 1014.25 1013.65 1013.20 1012.95 1012.90 1013.03 1013.30 1013.63 1013.96 1014.25 1014.44 1014.54 1014.56 1014.53 1014.50 1014.51 1014.60 1014.77 1015.03 1015.36 1015.74 1016.14 1016.52 1016.86 1017.14 1017.36 1017.51 1017.59 1017.61
1014.32 1014.46 1014.61 1014.79 1015.03 1015.32 1015.63 1015.93 1016.15 1016.26 1016.21 1015.99 1015.60 1015.10 1014.53 1013.97 1013.51 1013.20 1013.07 1013.14 1013.38 1013.74 1014.16 1014.57 1014.93 1015.20 1015.36 1015.43 1015.44 1015.43 1015.44 1015.50 1015.63 1015.84 1016.12 1016.44 1016.79 1017.13 1017.45 1017.72 1017.93 1018.08 1018.17 1018.18
1013.46 1013.62 1013.80 1014.01 1014.27 1014.57 1014.88 1015.17 1015.39 1015.50 1015.48 1015.30 1015.00 1014.60 1014.15 1013.74 1013.41 1013.23 1013.22 1013.39 1013.72 1014.15 1014.64 1015.13 1015.55 1015.88 1016.12 1016.25 1016.31 1016.34 1016.36 1016.42 1016.53 1016.70 1016.93 1017.21 1017.50 1017.80 1018.08 1018.33 1018.53 1018.67 1018.75 1018.76
1012.64 1012.80 1013.00 1013.24 1013.51 1013.81 1014.11 1014.37 1014.58 1014.69 1014.68 1014.55 1014.32 1014.02 1013.69 1013.40 1013.21 1013.14 1013.24 1013.49 1013.89 1014.38 1014.93 1015.46 1015.95 1016.36 1016.67 1016.89 1017.03 1017.12 1017.19 1017.28 1017.39 1017.54 1017.74 1017.96 1018.20 1018.45 1018.69 1018.90 1019.07 1019.19 1019.27 1019.28
1011.94 1012.12 1012.32 1012.56 1012.81 1013.08 1013.34 1013.57 1013.73 1013.81 1013.79 1013.69 1013.50 1013.27 1013.04 1012.86 1012.76 1012.79 1012.97 1013.29 1013.73 1014.28 1014.87 1015.47 1016.03 1016.52 1016.93 1017.26 1017.51 1017.70 1017.85 1017.99 1018.14 1018.29 1018.47 1018.65 1018.85 1019.05 1019.23 1019.40 1019.54 1019.64 1019.71 1019.72
1011.45 1011.62 1011.81 1012.01 1012.22 1012.42 1012.60 1012.74 1012.83 1012.84 1012.78 1012.66 1012.49 1012.30 1012.13 1012.01 1011.98 1012.08 1012.31 1012.68 1013.17 1013.76 1014.41 1015.08 1015.73 1016.34 1016.88 1017.34 1017.72 1018.04 1018.31 1018.54 1018.74 1018.92 1019.10 1019.27 1019.43 1019.58 1019.72 1019.85 1019.95 1020.03 1020.09 1020.10
1011.15 1011.30 1011.45 1011.59 1011.71 1011.81 1011.87 1011.89 1011.85 1011.77 1011.63 1011.45 1011.26 1011.07 1010.92 1010.83 1010.85 1010.99 1011.26 1011.67 1012.21 1012.86 1013.58 1014.34 1015.10 1015.84 1016.53 1017.16 1017.71 1018.18 1018.58 1018.92 1019.20 1019.44 1019.64 1019.80 1019.95 1020.07 1020.18 1020.27 1020.35 1020.41 1020.45 1020.47
1010.98 1011.08 1011.16 1011.20 1011.21 1011.17 1011.09 1010.96 1010.78 1010.57 1010.33 1010.08 1009.83 1009.62 1009.46 1009.39 1009.43 1009.60 1009.91 1010.36 1010.96 1011.67 1012.48 1013.35 1014.25 1015.15 1016.01 1016.81 1017.53 1018.17 1018.72 1019.18 1019.55 1019.86 1020.10 1020.28 1020.43 1020.54 1020.63 1020.70 1020.76 1020.81 1020.84 1020.85
1010.78 1010.82 1010.80 1010.73 1010.60 1010.42 1010.18 1009.90 1009.58 1009.25 1008.91 1008.58 1008.28 1008.04 1007.87 1007.81 1007.87 1008.06 1008.41 1008.92 1009.58 1010.38 1011.30 1012.29 1013.34 1014.40 1015.43 1016.41 1017.30 1018.10 1018.79 1019.37 1019.84 1020.21 1020.50 1020.72 1020.88 1021.01 1021.10 1021.17 1021.22 1021.26 1021.28 1021.29
1010.42 1010.37 1010.24 1010.05 1009.79 1009.47 1009.10 1008.70 1008.28 1007.86 1007.44 1007.07 1006.74 1006.49 1006.33 1006.28 1006.37 1006.60 1007.00 1007.58 1008.32 1009.22 1010.24 1011.38 1012.57 1013.78 1014.97 1016.10 1017.14 1018.07 1018.88 1019.55 1020.10 1020.54 1020.88 1021.14 1021.33 1021.48 1021.58 1021.66 1021.72 1021.76 1021.77 1021.76
1009.78 1009.63 1009.39 1009.09 1008.73 1008.32 1007.87 1007.40 1006.93 1006.48 1006.06 1005.68 1005.37 1005.14 1005.01 1005.00 1005.14 1005.43 1005.90 1006.55 1007.38 1008.38 1009.52 1010.77 1012.09 1013.43 1014.75 1016.00 1017.14 1018.17 1019.05 1019.79 1020.39 1020.87 1021.25 1021.54 1021.77 1021.94 1022.07 1022.17 1022.24 1022.27 1022.27 1022.24
1008.84 1008.58 1008.26 1007.88 1007.47 1007.02 1006.56 1006.10 1005.65 1005.24 1004.87 1004.56 1004.32 1004.16 1004.10 1004.16 1004.37 1004.73 1005.28 1006.01 1006.93 1008.02 1009.26 1010.62 1012.03 1013.46 1014.86 1016.17 1017.37 1018.44 1019.35 1020.11 1020.73 1021.23 1021.62 1021.94 1022.19 1022.39 1022.55 1022.66 1022.73 1022.76 1022.74 1022.68
1007.66 1007.32 1006.94 1006.54 1006.12 1005.70 1005.30 1004.93 1004.59 1004.29 1004.04 1003.85 1003.72 1003.67 1003.71 1003.87 1004.16 1004.61 1005.23 1006.05 1007.05 1008.22 1009.53 1010.95 1012.42 1013.90 1015.32 1016.65 1017.85 1018.90 1019.79 1020.53 1021.13 1021.62 1022.01 1022.33 1022.60 1022.81 1022.98 1023.10 1023.17 1023.19 1023.15 1023.05
1006.39 1006.00 1005.61 1005.23 1004.88 1004.56 1004.29 1004.06 1003.89 1003.76 1003.68 1003.65 1003.67 1003.75 1003.90 1004.16 1004.55 1005.08 1005.78 1006.66 1007.72 1008.94 1010.30 1011.74 1013.23 1014.70 1016.10 1017.39 1018.54 1019.53 1020.36 1021.05 1021.60 1022.05 1022.42 1022.73 1022.99 1023.20 1023.37 1023.49 1023.55 1023.55 1023.47 1023.34
1005.23 1004.84 1004.49 1004.18 1003.94 1003.77 1003.67 1003.64 1003.66 1003.73 1003.84 1003.99 1004.16 1004.38 1004.65 1005.01 1005.48 1006.07 1006.83 1007.76 1008.85 1010.09 1011.46 1012.89 1014.35 1015.77 1017.11 1018.32 1019.39 1020.29 1021.03 1021.63 1022.12 1022.51 1022.85 1023.13 1023.37 1023.58 1023.74 1023.85 1023.89 1023.85 1023.74 1023.56
1004.39 1004.04 1003.76 1003.58 1003.49 1003.49 1003.58 1003.74 1003.97 1004.24 1004.53 1004.84 1005.16 1005.49 1005.87 1006.30 1006.83 1007.47 1008.26 1009.21 1010.30 1011.54 1012.87 1014.26 1015.65 1016.99 1018.23 1019.34 1020.30 1021.09 1021.73 1022.25 1022.66 1023.00 1023.29 1023.55 1023.77 1023.96 1024.11 1024.19 1024.21 1024.13 1023.98 1023.76
1004.02 1003.75 1003.59 1003.54 1003.60 1003.78 1004.05 1004.40 1004.80 1005.23 1005.67 1006.10 1006.53 1006.96 1007.40 1007.88 1008.44 1009.11 1009.90 1010.84 1011.91 1013.10 1014.37 1015.68 1016.98 1018.22 1019.34 1020.34 1021.18 1021.86 1022.41 1022.84 1023.19 1023.48 1023.74 1023.98 1024.19 1024.36 1024.49 1024.56 1024.54 1024.43 1024.24 1023.98
Thickness
5562 5564 5577 5589 5591 5592 5591 5593 5597 5605 5615 5616 5618 5627 5642 5650 5650 5654 5659 5664 5669 5677 5686 5688 5690 5691 5691 5691 5692 5692 5691 5690 5687 5683 5681 5679 5679 5678 5676 5674 5672 5670 5667 5664
5549 5564 5582 5579 5578 5578 5580 5582 5588 5595 5602 5604 5606 5616 5633 5642 5646 5652 5658 5662 5667 5672 5678 5682 5685 5686 5687 5689 5689 5690 5689 5689 5686 5684 5682 5680 5679 5677 5676 5673 5671 5668 5666 5663
5549 5567 5570 5566 5566 5568 5573 5578 5580 5582 5588 5592 5592 5602 5621 5636 5642 5649 5655 5661 5665 5669 5673 5677 5680 5681 5682 5684 5686 5687 5687 5686 5685 5683 5679 5676 5673 5672 5671 5670 5669 5667 5664 5661
5537 5552 5555 5556 5561 5564 5569 5576 5572 5570 5568 5571 5577 5583 5614 5627 5635 5643 5649 5653 5659 5664 5668 5671 5674 5675 5677 5680 5682 5682 5683 5682 5681 5678 5675 5673 5671 5670 5670 5668 5665 5663 5660 5658
5532 5540 5544 5550 5561 5561 5562 5567 5562 5560 5557 5557 5564 5567 5601 5617 5626 5639 5646 5651 5655 5660 5663 5666 5669 5670 5672 5674 5674 5676 5676 5676 5675 5673 5671 5668 5667 5666 5664 5661 5659 5657 5655 5653
5523 5531 5538 5548 5554 5553 5552 5550 5548 5546 5543 5548 5567 5559 5588 5607 5626 5636 5642 5646 5650 5653 5655 5658 5661 5661 5663 5665 5665 5667 5667 5667 5667 5665 5664 5662 5661 5659 5656 5654 5652 5651 5649 5647
5506 5514 5527 5538 5536 5538 5540 5537 5532 5534 5537 5548 5564 5557 5590 5611 5624 5633 5638 5640 5643 5644 5645 5647 5649 5650 5652 5654 5655 5656 5657 5657 5657 5656 5654 5653 5653 5651 5649 5648 5646 5644 5642 5641
5497 5505 5519 5527 5535 5537 5538 5537 5531 5528 5530 5536 5542 5557 5593 5607 5616 5623 5628 5630 5632 5632 5634 5635 5638 5639 5641 5642 5643 5643 5644 5645 5645 5644 5644 5643 5642 5640 5639 5638 5637 5636 5635 5635
5496 5505 5519 5523 5532 5532 5526 5528 5536 5525 5520 5520 5528 5547 5574 5594 5601 5608 5612 5615 5618 5620 5622 5623 5624 5625 5627 5628 5630 5630 5631 5631 5632 5632 5631 5630 5629 5628 5627 5626 5625 5624 5623 5623
5492 5492 5504 5511 5516 5521 5526 5525 5517 5514 5513 5516 5524 5537 5567 5587 5592 5596 5600 5604 5607 5608 5608 5608 5608 5609 5611 5613 5614 5615 5617 5617 5617 5618 5617 5616 5615 5615 5614 5613 5611 5611 5611 5611
5481 5483 5488 5494 5506 5515 5513 5513 5516 5515 5513 5514 5515 5541 5573 5582 5587 5587 5590 5593 5594 5594 5593 5592 5591 5592 5594 5596 5597 5599 5601 5601 5601 5602 5601 5601 5600 5600 5599 5598 5598 5597 5597 5597
5474 5473 5474 5487 5502 5511 5511 5515 5515 5509 5508 5513 5520 5542 5572 5571 5573 5574 5575 5577 5578 5576 5575 5574 5574 5575 5577 5579 5580 5582 5583 5584 5584 5585 5585 5584 5584 5584 5583 5583 5583 5583 5583 5583
5470 5465 5463 5469 5476 5486 5494 5504 5510 5511 5505 5502 5508 5533 5556 5555 5557 5558 5559 5559 5559 5558 5558 5557 5557 5558 5560 5561 5563 5564 5565 5566 5567 5567 5568 5567 5567 5567 5566 5566 5567 5567 5568 5569
5469 5458 5463 5473 5484 5488 5489 5495 5501 5499 5499 5502 5510 5529 5543 5543 5543 5544 5544 5543 5542 5542 5542 5541 5541 5542 5543 5544 5546 5547 5548 5549 5550 5550 5550 5550 5549 5550 5550 5550 5550 5551 5552 5552
5455 5450 5454 5465 5474 5475 5480 5486 5491 5494 5500 5499 5512 5519 5539 5539 5535 5534 5532 5529 5528 5527 5528 5528 5528 5527 5527 5528 5529 5530 5530 5531 5532 5533 5533 5532 5532 5533 5533 5533 5534 5535 5535 5536
5443 5443 5445 5449 5459 5462 5465 5475 5481 5487 5494 5497 5502 5511 5531 5529 5524 5520 5518 5517 5515 5515 5515 5515 5514 5514 5513 5514 5514 5513 5514 5514 5515 5515 5515 5514 5515 5516 5516 5517 5517 5518 5519 5520
5433 5432 5433 5439 5448 5445 5449 5472 5480 5483 5489 5493 5497 5516 5518 5514 5515 5513 5511 5509 5509 5507 5504 5502 5501 5501 5500 5499 5499 5498 5498 5498 5498 5498 5498 5497 5498 5499 5500 5500 5501 5502 5502 5503
5428 5427 5424 5427 5431 5439 5466 5479 5482 5484 5489 5492 5497 5505 5510 5512 5508 5502 5500 5500 5499 5496 5493 5491 5489 5487 5486 5484 5483 5482 5482 5483 5483 5482 5482 5481 5482 5482 5482 5483 5484 5484 5485 5486
5428 5425 5419 5423 5427 5433 5452 5464 5472 5476 5478 5489 5491 5494 5495 5491 5486 5484 5486 5487 5486 5484 5481 5479 5477 5474 5472 5470 5469 5467 5467 5467 5467 5466 5465 5465 5466 5466 5466 5466 5467 5468 5469 5470
5422 5424 5417 5415 5421 5426 5460 5467 5467 5468 5466 5483 5484 5485 5482 5479 5479 5487 5478 5472 5470 5468 5466 5464 5461 5458 5457 5456 5455 5454 5452 5451 5451 5450 5450 5449 5449 5450 5450 5450 5450 5451 5452 5453
5414 5415 5417 5413 5415 5424 5449 5453 5456 5453 5473 5473 5472 5474 5471 5472 5476 5471 5462 5456 5454 5452 5450 5448 5445 5443 5442 5441 5439 5438 5436 5435 5434 5433 5433 5432 5433 5433 5434 5434 5434 5435 5435 5436
5415 5413 5413 5411 5414 5427 5441 5439 5451 5458 5456 5454 5454 5456 5454 5450 5447 5445 5443 5439 5436 5434 5432 5431 5429 5425 5423 5423 5423 5422 5419 5417 5416 5416 5416 5416 5416 5417 5418 5417 5417 5417 5418 5418
5413 5420 5421 5425 5428 5425 5422 5429 5430 5431 5434 5435 5435 5438 5436 5432 5429 5428 5424 5421 5419 5418 5415 5413 5411 5408 5405 5404 5405 5404 5401 5399 5399 5399 5399 5399 5398 5398 5400 5400 5399 5398 5398 5399
5400 5404 5408 5408 5410 5408 5406 5406 5409 5411 5414 5414 5414 5416 5418 5415 5413 5411 5408 5404 5401 5399 5396 5394 5392 5390 5387 5385 5385 5383 5383 5382 5382 5382 5382 5382 5381 5381 5381 5381 5380 5379 5379 5378
5394 5394 5398 5401 5397 5390 5392 5393 5394 5394 5394 5394 5395 5396 5398 5397 5395 5393 5391 5386 5383 5381 5378 5376 5375 5373 5369 5367 5366 5365 5364 5365 5366 5366 5365 5363 5363 5362 5362 5361 5360 5360 5360 5359
5375 5385 5398 5405 5398 5394 5391 5380 5378 5378 5378 5378 5379 5377 5376 5378 5377 5375 5370 5366 5364 5361 5359 5357 5355 5353 5349 5347 5346 5345 5346 5347 5347 5348 5347 5346 5345 5344 5343 5342 5341 5341 5340 5340